Theta_e
349 349 349 349 349 349 350 350 349 348 349 349 348 348 348 349 348 348 348 346 342 338 337 338 339 339 338 338 339 338 337 338 339 338 338 339 338 338 338 336 335 336 337 340 341 340 340 341 342 342 342 340 339 336 336 336 336 336 336 336 336 335 334 335 334 333 334 334 334 336 336 336 337 338 337 337 334 332 332 333 334 335 335 335 334
349 350 350 350 350 350 350 349 350 349 349 349 349 349 349 348 348 348 346 345 343 340 338 340 340 339 337 338 340 339 336 335 336 338 337 338 339 339 338 337 336 336 336 337 340 342 341 339 340 342 342 342 341 339 337 336 335 335 336 336 336 336 335 335 333 332 332 331 332 333 334 335 336 337 338 338 337 335 334 333 334 334 333 332 330
348 349 350 351 351 350 349 349 350 350 349 349 348 348 348 348 347 346 346 345 343 341 340 340 340 339 338 337 339 338 336 334 335 337 336 336 339 339 338 338 339 337 336 336 337 340 342 340 339 339 341 342 342 341 339 337 335 334 334 334 335 335 335 335 334 333 332 331 330 331 331 333 334 335 336 337 337 336 334 334 333 333 332 330 327
345 348 350 349 349 348 349 350 350 350 348 348 348 347 347 347 345 344 346 346 343 341 341 340 339 340 336 335 338 336 336 337 337 336 335 335 338 339 338 338 340 339 338 337 335 337 341 342 341 340 340 341 341 341 339 338 337 336 334 334 335 335 335 335 334 333 333 332 331 331 330 330 331 332 334 335 335 335 334 334 334 333 333 331 329
342 345 347 346 346 345 346 348 347 348 347 346 347 347 346 346 345 345 346 346 343 342 341 340 340 339 333 333 337 335 337 338 336 336 335 336 338 339 339 339 339 339 339 338 336 336 337 339 341 341 341 340 340 340 340 339 338 338 336 335 335 336 335 335 335 334 334 334 333 333 331 330 330 330 331 332 333 334 334 334 335 335 334 334 333
342 342 344 343 343 342 343 344 345 346 346 345 346 347 346 346 345 345 346 346 344 342 341 341 341 339 333 335 337 334 337 339 336 337 337 336 338 338 338 339 338 338 339 339 338 338 337 336 336 338 341 341 340 339 340 339 339 339 338 337 336 336 335 335 336 336 335 335 335 335 334 333 332 330 330 330 331 332 333 334 335 335 335 335 335
342 341 342 343 342 342 342 343 344 345 345 346 347 347 347 347 346 346 345 345 344 341 341 341 341 338 335 338 338 335 337 339 338 339 339 337 338 339 338 338 338 337 338 338 338 339 339 337 334 335 338 339 339 338 340 340 340 340 339 338 338 337 337 336 336 336 336 336 336 336 336 335 334 332 332 331 330 330 330 331 332 333 334 334 335
343 342 342 343 342 342 342 343 344 344 345 346 346 346 347 348 347 346 345 346 344 340 340 340 339 338 336 338 339 338 338 338 339 338 338 338 338 339 339 339 339 338 339 338 338 339 339 338 337 335 336 337 337 337 339 340 340 340 339 338 339 339 338 338 337 337 337 337 337 337 337 336 336 335 335 334 333 332 331 330 330 330 330 331 332
344 343 342 342 342 342 343 344 344 345 345 345 346 346 347 347 347 347 347 346 343 341 338 337 337 336 335 337 338 339 339 337 337 338 337 337 337 338 339 340 339 338 339 339 340 341 341 340 339 336 335 336 337 338 339 339 339 340 340 339 339 339 338 339 338 337 337 337 337 338 338 338 337 337 337 337 336 336 335 334 332 331 329 328 328
345 343 342 342 343 343 344 346 346 346 345 345 346 346 347 347 348 347 346 346 345 341 334 331 333 333 334 338 338 337 337 334 334 338 338 335 336 339 339 340 339 337 337 337 337 339 340 341 340 338 335 333 335 338 339 338 338 339 340 340 339 338 338 338 338 338 337 338 338 338 338 338 338 338 338 338 338 338 337 337 336 335 333 331 329
345 343 343 343 344 345 345 346 347 347 346 346 346 346 347 348 347 347 346 345 342 335 329 330 334 334 337 339 338 337 334 331 333 336 336 334 336 340 338 338 338 336 336 335 334 334 337 339 340 340 337 334 334 335 336 336 336 336 337 340 340 339 339 338 338 338 338 339 339 339 339 338 338 339 339 339 339 339 339 338 338 337 337 335 333
345 344 344 344 345 346 346 347 348 347 347 347 346 347 348 347 347 346 344 338 331 330 333 337 337 334 336 338 337 335 332 331 335 336 335 335 337 339 337 337 337 335 336 336 334 334 333 334 335 338 338 337 337 336 336 336 335 335 335 337 339 338 339 339 338 338 338 338 339 339 339 339 338 339 339 339 339 339 339 339 338 338 338 337 336
347 346 345 345 345 346 347 347 348 347 347 347 347 348 348 348 347 342 335 328 325 333 338 338 337 336 338 339 337 336 334 334 336 337 336 335 336 337 335 335 334 333 335 335 335 335 331 327 328 331 333 334 335 336 337 337 337 337 336 337 338 337 336 337 338 338 339 339 339 339 339 339 339 339 338 338 339 339 339 339 339 339 339 338 338
348 347 346 346 346 347 348 348 348 347 347 346 347 348 347 345 341 331 327 328 330 336 337 335 336 339 340 339 340 338 337 337 336 336 337 336 335 334 333 333 332 332 333 333 334 335 332 325 322 323 326 328 329 331 333 335 336 336 334 335 336 336 335 335 336 337 338 338 339 339 339 339 338 339 339 339 339 339 339 339 339 339 339 339 339
349 348 348 347 347 347 347 348 348 346 345 346 346 345 342 338 332 326 327 334 336 337 338 334 334 338 339 338 340 341 340 340 338 336 337 336 334 334 333 331 330 329 330 329 330 330 329 325 321 320 322 323 325 327 328 330 332 331 330 329 330 331 332 332 334 335 337 338 339 338 338 338 338 338 339 339 339 339 338 338 338 339 339 339 339
351 350 349 348 347 346 347 347 346 344 343 342 341 339 335 330 328 330 333 336 338 339 339 336 334 337 339 339 340 341 341 341 339 337 336 334 333 332 332 330 329 329 328 326 325 325 326 325 321 319 319 319 322 324 324 325 326 326 327 325 323 324 325 326 328 330 333 335 336 336 337 338 338 339 339 339 339 339 339 339 339 339 339 339 339
352 350 350 349 347 346 345 344 341 339 338 338 337 336 331 327 330 334 335 338 340 339 339 339 336 335 335 338 340 340 340 340 337 336 334 333 332 331 331 330 329 329 327 326 325 326 326 326 322 320 321 319 318 319 318 320 320 320 321 320 318 319 319 320 321 322 324 326 328 329 332 334 335 336 337 338 339 339 339 339 340 339 340 340 340
352 351 351 349 347 344 342 339 336 334 334 335 337 335 330 330 334 335 333 336 340 339 339 338 335 333 330 332 338 340 339 338 337 336 335 334 333 331 331 331 329 328 328 326 327 328 328 327 324 325 325 321 318 317 317 318 318 317 316 315 316 316 317 317 318 318 318 319 320 322 324 326 328 330 331 332 334 335 337 338 340 340 341 341 341
352 351 350 349 345 342 339 336 333 331 332 334 335 334 334 336 337 335 331 333 338 338 337 336 335 335 331 328 332 336 337 337 338 337 336 335 334 332 331 330 328 328 328 327 328 329 328 327 327 328 327 323 321 321 319 319 319 318 318 317 316 315 315 316 316 316 316 316 317 317 318 319 320 321 323 325 327 329 332 334 336 338 340 341 341
351 350 348 345 342 338 337 334 331 331 331 332 332 333 337 340 339 336 330 330 336 336 333 334 336 337 335 332 332 334 335 336 336 335 335 336 334 333 331 330 328 328 328 328 328 328 327 328 329 329 327 325 325 326 325 324 322 322 322 321 320 318 317 316 315 315 315 315 315 315 315 315 315 316 317 318 319 321 324 326 329 332 335 338 340
349 348 344 342 339 337 335 332 329 330 331 330 330 332 337 340 339 336 331 328 331 332 332 335 337 337 337 336 335 335 336 336 334 332 333 334 333 332 332 330 329 329 329 328 328 327 329 330 331 330 329 328 328 329 329 328 327 326 324 323 322 321 319 318 316 316 315 315 315 315 315 315 315 315 314 314 315 315 316 318 320 322 325 329 333
347 345 344 341 339 337 334 330 328 330 333 332 332 333 337 340 338 335 333 329 328 329 330 335 336 336 338 337 336 335 335 335 334 333 333 333 331 331 332 331 330 330 330 329 329 330 331 332 331 331 331 330 330 330 330 329 328 327 326 325 323 322 321 320 318 317 316 316 316 316 316 316 316 316 316 315 315 315 315 315 315 316 317 319 322
346 345 346 343 340 338 334 331 329 331 334 335 336 338 338 338 335 334 331 328 328 326 327 333 336 335 334 334 334 334 333 333 332 332 333 333 331 330 332 332 331 331 331 331 331 332 332 333 332 331 331 331 331 331 330 330 329 328 327 326 324 323 323 322 320 319 318 317 317 317 318 318 318 318 318 317 317 317 316 316 316 316 315 315 316
347 345 345 343 341 339 336 333 330 331 333 335 338 339 338 337 336 336 333 330 329 326 326 332 335 334 330 328 330 331 331 331 331 330 331 331 330 329 329 330 330 330 332 332 333 333 333 333 333 333 333 332 332 331 331 330 329 328 327 326 326 325 324 323 322 320 320 320 319 319 319 319 319 319 319 318 318 317 317 317 317 317 317 317 316
346 344 342 342 341 338 335 332 331 332 333 336 339 339 338 337 337 337 337 334 330 325 325 328 332 334 332 329 332 333 333 333 332 330 330 330 330 330 329 330 330 331 332 333 334 334 334 333 332 332 333 333 332 332 331 330 329 329 328 328 327 326 325 325 324 322 321 320 320 321 320 319 318 318 318 318 317 317 317 317 317 317 317 317 317
343 340 340 341 340 337 332 331 333 335 336 336 337 339 337 337 337 337 338 336 330 324 323 323 327 332 333 333 335 336 335 334 333 331 331 332 332 332 332 333 332 332 333 333 333 333 333 332 332 332 332 332 332 331 330 329 329 329 329 328 328 327 326 325 325 324 323 321 320 320 320 318 318 318 318 317 317 317 317 317 317 317 317 317 317
338 338 339 341 341 339 333 332 335 337 338 335 334 336 334 335 338 338 338 336 329 325 324 323 326 331 333 335 336 336 335 334 334 333 332 333 333 333 333 334 333 333 332 331 331 332 332 332 332 331 331 332 331 330 330 329 329 329 329 329 328 327 327 326 325 324 324 323 321 319 318 318 318 318 319 319 318 318 317 317 317 317 317 317 317
337 338 341 343 342 340 336 335 336 335 335 334 332 333 331 334 337 337 336 333 328 326 325 325 328 331 333 335 336 335 335 334 334 334 333 334 334 333 333 332 331 331 331 330 330 330 331 331 330 330 330 331 331 330 330 330 330 329 329 328 327 326 326 326 325 324 324 325 323 321 320 319 320 320 320 320 319 319 318 318 318 318 318 318 318
339 340 343 345 344 340 336 338 339 336 333 331 330 329 328 331 336 335 333 330 327 328 327 325 328 331 331 332 333 334 333 333 334 334 334 334 333 333 333 330 328 328 329 329 330 330 330 329 328 329 330 332 331 330 330 330 329 328 327 327 326 325 324 325 326 326 325 325 325 324 323 322 322 322 322 321 320 320 319 319 319 318 318 317 317
341 342 344 345 343 339 338 341 340 337 335 331 327 324 322 326 333 335 331 327 326 330 329 326 328 331 332 332 332 332 332 333 333 332 332 332 332 333 332 329 328 329 330 330 330 328 327 327 327 329 331 331 330 331 330 329 328 328 328 327 325 324 325 325 325 325 325 324 324 323 323 322 322 321 322 322 322 321 320 319 319 319 318 318 317
342 343 345 345 342 338 339 342 342 340 338 333 327 323 320 320 324 328 328 324 323 327 329 326 327 331 333 334 333 333 333 333 332 332 331 330 330 330 329 328 329 329 330 330 328 325 325 325 326 328 328 328 328 328 328 328 329 330 329 327 326 325 325 324 323 323 323 323 323 322 321 321 320 320 321 322 323 323 322 322 321 320 320 319 318
341 343 344 345 342 339 339 342 343 342 341 337 330 325 321 318 318 319 321 321 321 323 327 327 328 329 331 334 334 334 333 332 331 330 330 329 329 330 327 326 329 330 330 330 328 327 326 326 325 326 326 325 325 326 326 327 327 328 329 329 329 328 326 324 323 323 323 322 321 321 321 320 321 321 322 322 323 323 324 323 323 323 322 321 320
341 343 344 344 343 341 341 342 344 344 343 341 336 329 324 320 318 316 316 318 319 321 325 327 328 329 330 333 335 335 333 332 331 331 332 331 330 330 327 325 328 331 332 332 331 329 329 327 326 326 326 326 326 326 327 328 328 329 330 330 330 330 328 326 326 326 325 324 323 322 322 322 323 323 323 324 324 324 324 324 325 325 325 324 323
342 343 344 344 344 343 343 344 344 345 344 343 340 335 328 323 320 318 316 317 318 321 323 325 326 327 328 331 333 334 332 330 329 330 330 328 326 324 324 325 329 332 332 332 332 331 329 328 327 327 326 326 326 327 327 327 328 328 327 328 329 330 329 328 327 326 326 325 324 324 324 324 323 323 323 324 324 324 324 325 326 326 326 326 325
340 343 344 345 345 345 345 345 345 346 345 344 342 340 334 327 322 321 318 318 320 322 323 325 325 325 326 327 327 328 326 324 323 323 324 325 324 324 323 325 329 332 333 332 332 331 330 328 327 327 327 327 328 328 327 327 326 325 324 324 325 327 327 327 326 325 325 326 326 325 325 324 324 324 323 323 323 324 324 324 324 324 324 324 324
338 341 344 345 346 346 346 345 346 346 345 344 343 342 339 332 326 322 321 321 322 324 324 325 326 325 324 324 323 323 323 323 321 320 322 326 327 326 325 326 328 331 332 332 331 331 330 329 328 328 328 328 329 329 329 328 327 326 323 322 323 324 324 325 326 325 325 326 327 327 327 326 326 325 324 323 323 323 323 323 323 323 322 322 322
336 340 343 344 344 344 343 343 344 345 345 344 343 342 340 336 329 324 323 322 323 324 323 324 325 325 323 323 323 325 326 325 322 321 324 328 328 326 327 330 330 329 330 330 331 331 332 331 329 328 329 330 329 330 330 330 329 328 325 323 322 323 325 326 326 326 325 325 326 328 328 327 326 325 324 324 324 324 323 323 322 322 321 321 321
334 338 341 340 339 338 338 339 341 343 344 344 343 342 341 339 333 327 324 323 323 323 322 323 324 323 323 323 324 325 326 324 322 325 329 331 328 326 329 332 332 330 329 330 331 331 332 331 330 329 330 330 331 331 331 330 330 329 327 325 323 323 325 327 326 326 325 325 325 326 326 325 324 323 323 324 324 324 323 322 321 320 320 319 319
333 336 338 337 336 336 336 338 340 342 344 344 344 343 342 341 337 331 326 324 323 323 322 323 325 325 325 324 324 326 326 324 323 326 330 331 329 328 330 333 333 332 331 330 330 329 330 330 329 328 329 330 330 331 331 331 331 329 327 326 325 323 324 326 326 326 326 325 325 325 324 323 323 323 323 323 322 320 318 317 318 319 319 318 317
333 334 336 337 339 339 339 340 342 344 346 346 346 345 344 342 339 334 329 325 324 324 323 324 329 331 330 327 326 328 327 325 325 326 328 329 330 330 332 333 333 333 332 329 328 328 329 328 327 328 330 330 330 331 330 330 330 329 327 326 326 324 323 325 326 326 326 326 325 323 321 321 320 320 319 318 316 315 316 318 319 318 317 316 316
336 337 340 342 344 344 344 345 346 347 348 348 347 346 345 343 341 338 333 328 326 325 323 324 329 333 332 329 330 330 329 328 326 324 325 327 330 331 332 333 333 334 331 327 325 327 328 328 328 330 331 331 331 331 330 330 329 328 326 326 325 324 324 325 325 325 326 325 324 321 318 317 316 314 314 313 313 313 315 317 316 314 314 314 315
342 344 346 346 346 346 348 348 349 350 350 350 349 348 346 345 343 341 336 330 327 325 324 325 330 332 332 334 331 327 328 330 326 322 323 327 331 332 332 333 333 332 330 328 327 327 328 329 329 328 328 328 329 330 329 329 328 327 326 325 325 325 325 325 325 324 323 322 321 318 316 313 312 312 312 312 313 313 314 314 314 314 315 316 317
349 350 351 351 349 349 349 351 352 352 352 351 351 350 348 347 345 342 338 334 330 327 327 330 334 334 335 336 329 321 325 328 322 319 322 325 328 330 330 331 331 331 330 329 329 328 329 329 327 325 324 324 326 328 329 328 327 326 326 325 325 325 325 325 324 321 319 318 316 315 313 312 313 313 314 315 315 316 316 316 316 317 318 319 319
353 353 354 354 353 352 352 353 354 354 354 354 352 351 350 349 347 343 339 336 333 330 329 332 336 336 336 334 325 319 322 322 317 318 321 321 323 326 329 330 330 329 329 329 328 327 327 328 327 325 322 322 326 327 326 327 327 326 326 326 325 325 324 324 323 320 318 316 315 314 315 315 315 316 317 316 317 317 317 317 318 318 319 319 319
354 355 356 356 355 355 354 355 355 355 355 354 353 352 351 349 348 344 340 336 335 332 332 335 337 337 333 328 321 317 317 317 318 321 322 322 326 328 330 330 329 328 328 328 327 327 327 328 328 325 323 325 328 326 324 326 327 327 326 326 325 325 324 324 322 319 317 316 316 317 317 317 317 318 317 317 317 318 317 317 318 318 319 318 318
355 355 356 357 357 356 355 355 355 354 354 353 352 351 350 349 348 345 341 338 336 334 335 337 338 335 329 323 319 317 315 317 321 323 324 328 330 330 329 328 326 325 326 327 327 326 326 327 329 328 327 327 328 326 325 327 327 326 326 325 325 324 323 322 319 317 316 317 318 319 319 318 318 318 318 318 319 318 317 318 319 319 318 317 316
356 356 356 356 357 356 355 355 354 354 354 353 352 351 351 350 348 346 343 339 336 334 335 336 336 332 327 322 319 318 318 321 323 324 326 328 328 327 325 325 324 324 326 327 327 325 326 327 329 329 328 326 325 325 326 326 326 326 326 325 324 323 321 319 318 317 318 318 319 319 319 318 319 319 319 320 320 320 319 318 318 317 317 317 316
357 356 355 356 355 355 355 355 355 355 354 352 352 351 350 350 349 347 345 341 337 335 335 336 335 332 327 323 320 319 321 323 324 324 326 325 324 323 323 324 325 325 326 328 328 326 327 328 328 328 327 325 325 326 326 325 325 326 326 324 322 320 319 319 319 319 319 319 318 318 318 318 320 321 320 320 319 319 318 318 317 317 317 315 312
357 356 356 356 355 355 355 356 355 354 353 352 351 350 350 350 349 347 345 341 339 337 336 338 337 332 327 324 322 322 323 324 323 323 324 323 322 322 322 324 325 325 326 328 329 328 328 328 328 326 325 325 325 326 326 326 325 324 323 320 319 319 319 319 319 319 319 318 318 318 319 320 321 321 320 318 317 317 317 317 316 314 312 309 308
358 357 357 356 355 355 354 354 353 352 351 350 348 348 349 349 348 347 345 342 339 337 337 337 334 328 325 325 325 325 324 324 323 323 323 323 322 321 321 323 325 325 326 327 328 329 328 326 325 323 323 324 325 326 326 325 324 322 319 318 319 319 319 319 319 320 320 320 320 320 321 321 320 320 319 318 317 316 315 313 311 309 310 313 316
359 358 357 355 354 355 354 353 352 351 349 348 347 346 347 348 348 346 344 342 339 336 335 334 330 325 324 326 327 325 324 323 324 324 323 322 321 320 320 323 326 326 326 325 326 325 323 321 320 320 320 321 322 323 323 321 320 319 319 320 319 319 319 319 320 321 321 320 319 319 319 318 317 316 315 313 312 311 309 310 312 314 316 319 320
Wind_Speed
3 2 2 2 2 2 2 2 2 1 1 1 1 1 1 2 1 1 2 4 5 8 8 8 8 6 6 7 5 4 5 2 3 6 5 6 5 6 8 8 6 3 0 1 3 4 4 5 6 7 7 8 8 8 8 8 8 8 9 9 9 9 10 9 9 9 9 9 9 9 9 8 8 8 8 7 7 7 7 7 7 6 6 5 5
3 3 3 3 4 5 4 3 1 2 3 3 3 2 3 3 3 3 5 6 3 8 10 8 6 5 3 4 4 6 8 1 2 5 6 5 3 4 8 9 9 6 3 1 2 4 4 5 5 6 7 8 9 9 10 10 10 10 10 10 10 10 11 10 10 10 10 9 9 10 9 9 9 9 9 9 9 8 8 8 7 7 6 6 5
5 4 4 4 5 4 3 3 3 3 5 5 4 5 5 4 5 5 6 4 4 7 8 6 4 2 2 1 2 3 5 4 3 4 6 5 3 3 8 10 10 9 7 4 1 3 4 4 5 5 6 7 9 10 11 10 10 11 11 11 11 11 11 11 11 11 11 10 10 10 10 10 10 10 9 10 10 9 9 9 8 8 7 7 6
8 6 5 5 5 4 4 6 5 5 6 6 6 8 7 7 8 6 5 2 5 6 5 3 1 2 5 4 1 1 2 6 4 3 3 0 2 2 6 6 6 7 7 6 4 2 4 4 5 5 6 6 8 10 11 10 11 11 12 13 12 12 12 12 13 12 11 11 11 10 10 10 11 11 10 10 10 10 10 9 9 9 8 8 8
9 8 8 7 6 6 7 7 6 7 7 8 8 8 8 8 7 5 4 1 5 5 4 1 4 3 4 4 4 3 4 6 6 3 4 5 3 2 4 3 3 3 4 5 5 4 3 4 4 6 6 6 6 8 9 10 11 12 12 12 13 13 13 13 14 13 12 11 11 11 11 11 11 11 11 11 11 11 11 11 11 10 10 9 8
10 10 10 9 8 8 8 8 7 8 9 9 9 9 8 7 6 6 4 2 3 3 4 1 4 4 4 3 2 4 6 5 6 4 4 4 3 3 4 4 4 4 3 3 4 4 3 3 4 5 6 5 6 7 8 10 11 12 12 12 13 13 13 13 13 13 13 12 12 12 12 11 11 11 12 12 12 13 13 13 12 12 11 11 10
12 11 11 10 9 9 9 8 8 10 10 10 10 10 10 8 7 8 6 4 3 4 4 2 2 5 4 6 2 5 5 2 5 5 2 1 1 2 5 6 6 4 4 2 1 3 3 3 3 5 6 6 6 7 8 9 10 11 11 12 14 13 13 12 12 13 13 13 13 13 13 12 12 12 12 12 12 13 14 14 14 13 13 12 12
12 11 11 10 10 9 9 9 9 10 11 11 11 11 11 9 8 8 6 4 5 6 3 3 3 3 2 3 0 4 3 2 4 6 4 2 1 1 4 7 7 5 3 3 2 0 1 1 3 5 7 7 8 8 9 9 10 12 12 12 13 13 13 13 14 14 14 14 14 13 13 13 13 13 12 12 12 12 13 13 13 14 14 14 13
10 10 10 10 10 9 9 9 10 10 11 11 12 12 11 10 9 8 6 5 7 6 2 3 6 5 2 2 2 4 5 5 4 7 7 6 5 2 3 6 7 7 6 4 4 3 2 2 2 5 7 8 8 8 8 8 10 12 12 13 13 13 13 14 15 15 15 15 15 14 14 14 14 14 14 14 13 13 13 13 13 13 14 14 14
8 8 9 9 9 10 9 9 10 10 10 10 10 11 9 9 9 8 6 5 6 4 4 5 7 4 3 2 3 4 4 5 6 9 8 9 8 4 3 5 7 8 7 5 5 4 4 4 3 3 4 6 8 8 7 7 8 10 11 13 13 13 13 14 16 16 15 15 15 15 15 15 15 15 15 15 15 15 15 15 15 14 14 14 13
8 8 9 9 9 10 10 9 9 9 9 8 8 8 8 8 7 6 6 5 5 4 2 2 3 5 4 2 4 3 2 2 6 10 8 9 10 8 6 7 7 8 8 6 4 4 4 4 5 5 4 4 6 7 7 8 8 8 10 11 12 13 14 15 16 17 16 16 16 16 15 16 17 17 17 17 17 17 17 17 17 17 16 16 15
9 9 10 9 9 10 11 10 8 7 7 6 6 6 6 5 5 6 5 4 4 1 3 2 1 3 4 4 5 1 2 7 12 12 10 10 12 12 8 6 4 5 7 6 5 6 5 4 4 5 5 4 3 3 3 5 7 8 9 9 10 11 13 15 16 17 18 17 17 17 16 17 17 18 18 18 19 19 19 19 19 19 18 18 18
9 10 10 9 10 10 10 9 7 6 7 6 6 5 4 5 6 4 2 2 2 5 4 2 1 3 5 5 5 4 7 11 13 11 10 11 14 12 7 4 2 3 4 4 5 6 6 5 4 4 4 3 2 3 2 2 3 4 5 7 8 9 11 13 14 15 17 17 17 17 18 18 18 19 19 19 19 20 20 20 20 20 20 20 20
10 10 11 11 10 9 8 8 7 6 6 6 5 5 6 6 4 3 2 4 6 5 2 2 3 4 5 5 4 4 6 8 9 9 7 9 13 9 4 3 2 4 2 2 2 4 4 5 4 3 3 2 2 2 3 2 2 1 2 4 6 7 8 10 12 13 14 15 16 17 17 18 18 19 19 19 20 20 21 21 21 21 21 21 21
11 11 11 10 8 8 7 8 7 6 6 6 6 6 5 4 3 2 6 9 7 4 1 2 4 4 4 4 4 6 4 2 5 5 3 8 13 8 4 3 2 3 1 2 3 5 2 5 5 2 3 2 1 2 2 2 1 1 2 2 4 5 6 7 9 10 12 13 14 16 16 17 17 18 18 18 19 20 21 21 21 22 22 22 22
11 11 11 10 9 8 8 8 7 6 6 6 6 5 3 2 2 4 8 8 6 5 3 1 2 4 5 2 4 6 3 3 5 4 5 10 12 7 4 3 2 2 1 2 3 4 0 5 6 3 2 1 1 0 1 1 1 1 2 2 3 5 5 6 7 8 10 11 13 14 14 15 15 16 16 17 18 18 19 20 21 21 21 22 23
11 10 9 10 9 8 9 8 7 6 6 6 5 3 1 2 4 6 9 10 8 8 6 3 2 1 4 3 4 5 3 3 6 8 8 6 7 6 3 2 2 1 2 1 1 2 2 5 7 6 6 4 2 1 1 1 1 2 2 3 4 5 5 6 7 8 9 10 12 12 13 14 14 15 15 15 15 16 17 18 19 20 20 21 22
12 11 11 11 10 9 9 8 7 6 7 7 5 4 3 4 6 7 10 12 11 10 9 6 3 1 2 4 5 6 6 4 5 7 4 3 5 3 2 0 1 1 2 4 4 4 3 6 8 10 11 8 4 3 2 2 1 1 1 1 3 4 5 6 6 7 7 8 10 11 12 13 13 14 15 15 15 15 16 16 17 18 18 19 20
12 12 13 12 10 10 10 8 7 6 7 7 6 7 5 5 7 8 10 12 13 13 11 9 6 2 3 4 5 6 5 4 5 4 3 4 5 1 2 2 2 2 2 4 3 2 4 7 9 10 9 7 5 5 4 4 3 4 4 3 3 3 4 5 6 7 7 7 8 9 9 10 11 11 13 14 15 15 16 16 17 17 17 17 18
14 14 13 13 12 11 10 9 8 7 7 6 7 11 10 9 10 9 9 11 14 15 13 11 8 5 5 5 6 6 4 5 5 3 2 5 5 5 4 1 1 2 2 3 4 0 5 6 7 8 7 4 4 7 7 7 5 4 6 6 5 5 4 5 5 6 7 8 8 9 9 9 10 10 10 11 12 13 13 14 16 17 17 18 18
15 14 13 14 13 11 10 9 9 10 9 7 10 13 13 13 13 10 8 9 13 16 13 11 9 8 9 7 7 7 6 6 6 3 1 4 5 4 5 3 3 2 0 3 5 3 6 6 6 7 6 3 3 8 9 9 9 7 8 9 8 7 6 6 6 6 7 7 8 8 9 9 10 10 10 11 11 11 11 12 13 14 15 17 18
15 15 14 14 13 10 10 10 10 11 9 8 12 14 13 12 11 9 9 10 13 16 14 12 10 10 10 8 8 9 7 7 6 3 2 3 5 3 5 7 5 2 2 3 1 5 5 6 6 6 7 5 6 9 10 11 11 10 11 11 10 10 8 7 7 7 8 8 8 8 9 9 9 10 10 10 11 12 12 12 12 12 13 14 15
16 16 15 15 13 11 11 11 12 13 11 10 12 13 12 10 9 7 8 9 11 14 15 15 13 11 9 7 8 9 8 7 6 5 5 4 5 5 3 2 1 3 4 1 4 6 6 7 7 7 9 10 9 10 12 12 12 12 12 12 12 11 10 9 8 8 9 9 10 9 9 10 10 10 10 11 11 12 12 13 13 13 13 13 14
19 18 17 16 15 14 14 14 15 16 15 13 13 13 12 10 9 8 7 7 8 11 15 17 15 12 9 10 9 8 7 5 4 6 7 6 6 7 6 6 4 4 4 2 3 5 7 9 10 10 12 13 11 12 14 13 12 13 13 13 12 12 12 11 10 10 9 9 9 9 10 10 10 11 11 12 12 13 13 13 14 14 14 14 14
22 20 19 18 17 16 16 16 17 17 16 16 16 15 14 13 12 10 7 7 8 10 15 16 16 14 10 11 10 7 5 5 5 6 6 6 7 7 7 7 7 6 6 5 4 5 7 9 10 10 12 13 13 14 14 13 13 13 14 14 14 14 13 13 12 12 12 11 10 10 11 11 11 12 12 13 13 14 14 15 15 15 15 15 15
23 21 20 20 18 16 15 16 17 16 15 16 19 19 17 15 13 11 9 8 9 11 14 15 17 16 14 13 11 6 6 7 8 8 6 6 6 7 7 7 8 7 7 7 7 7 8 7 6 7 10 11 12 12 12 12 13 14 14 15 16 16 16 15 15 14 14 14 13 12 12 12 12 13 12 13 13 14 15 15 16 16 16 17 16
22 21 20 20 19 16 15 16 17 17 15 14 18 21 20 17 15 14 11 9 10 12 14 16 17 18 16 14 12 9 9 9 9 9 9 8 7 8 8 8 9 10 9 9 10 10 10 7 5 5 8 8 8 10 11 11 12 14 15 17 19 19 19 19 18 17 16 15 15 14 13 13 13 13 14 14 14 15 15 16 16 17 17 18 18
21 22 21 20 19 17 16 16 17 17 17 15 16 20 22 20 18 15 13 12 12 12 14 16 16 17 16 15 15 13 12 12 10 9 9 9 10 10 10 10 10 11 11 11 10 9 9 8 7 6 6 6 7 8 10 12 14 16 18 19 21 21 22 22 22 21 18 15 15 15 15 14 14 15 16 16 17 17 17 17 18 18 19 19 19
23 23 22 21 20 20 18 18 18 17 17 17 17 19 21 22 21 18 15 15 13 12 14 16 16 17 16 16 17 15 13 14 14 12 11 10 11 12 11 12 12 11 12 11 10 8 7 7 7 6 6 6 8 9 11 15 17 18 19 20 21 21 22 23 23 22 19 17 16 15 16 16 16 17 18 19 20 20 20 20 20 20 20 20 21
24 24 23 23 22 21 20 19 19 18 18 18 18 18 19 21 24 23 19 18 16 15 15 16 18 18 18 17 17 17 15 14 15 15 14 13 14 14 13 12 11 12 11 10 10 8 7 6 6 7 7 9 11 12 14 17 18 18 19 21 21 19 19 19 20 20 20 19 18 17 17 17 18 19 19 19 20 20 20 21 21 21 21 21 22
27 26 25 25 24 23 22 21 20 20 19 19 19 18 17 19 23 25 23 21 19 17 16 17 19 20 21 19 18 18 16 16 16 16 16 16 16 14 13 11 9 9 9 10 11 10 8 8 7 8 9 10 12 14 16 18 18 18 20 21 21 19 18 17 17 19 20 21 21 19 18 18 18 19 19 19 19 19 20 20 21 22 22 23 23
29 28 26 26 25 25 24 23 23 22 22 21 20 19 18 18 20 22 23 23 21 19 18 19 19 21 23 22 20 19 18 18 18 17 16 16 16 15 13 11 9 9 8 9 11 11 8 8 9 8 9 10 12 13 15 15 16 17 19 20 21 21 20 19 18 17 18 20 21 20 20 19 19 19 19 20 20 20 21 21 21 21 22 24 25
31 29 28 27 26 26 26 25 24 24 24 24 22 21 19 18 19 20 22 23 23 21 20 20 20 22 24 23 23 22 21 20 20 19 19 19 18 19 16 13 11 10 9 9 11 12 11 10 10 10 9 11 12 13 14 14 14 15 17 20 21 22 21 20 19 18 17 17 19 19 20 20 20 20 20 21 21 21 22 22 22 21 21 22 23
33 31 30 29 28 28 27 27 26 27 27 27 25 24 22 21 21 21 22 22 23 23 23 22 21 22 23 24 25 25 24 23 22 22 23 22 20 19 16 14 13 11 10 10 11 13 15 13 12 12 11 12 14 15 15 15 16 17 19 20 20 21 21 20 20 19 18 17 18 19 20 20 20 20 20 21 21 21 22 22 23 22 22 21 21
35 33 32 31 30 29 29 29 29 30 30 30 29 28 26 24 23 22 23 22 22 23 24 24 22 22 23 23 23 24 23 22 22 22 22 21 19 17 15 14 14 11 10 12 12 14 17 16 14 14 14 15 16 16 15 17 18 19 20 20 19 20 21 21 21 20 18 18 19 20 20 20 19 19 20 21 22 22 23 23 24 24 24 23 23
37 36 34 33 31 31 31 31 32 33 33 33 32 32 30 28 25 23 23 23 22 23 24 24 24 24 23 23 22 21 20 20 20 20 20 19 17 16 14 13 13 12 12 13 14 15 16 17 16 15 16 18 19 18 18 20 21 20 21 21 20 21 21 21 21 21 20 18 18 19 19 20 21 22 23 24 24 24 24 24 24 24 25 25 26
40 38 36 35 34 34 34 34 34 35 36 36 35 35 33 31 27 25 25 25 23 23 24 25 25 25 24 23 23 21 21 21 21 20 19 17 16 15 14 13 12 12 11 12 13 14 15 17 18 18 18 20 21 21 21 22 23 23 23 23 23 22 21 20 20 21 21 21 20 20 21 23 24 25 25 25 25 26 26 26 26 26 26 26 25
41 40 39 37 37 37 36 36 36 36 37 38 38 37 35 33 29 26 26 26 25 24 25 26 26 26 25 24 23 22 23 23 22 20 18 16 15 14 14 13 13 11 11 12 13 15 16 17 19 20 21 22 23 23 24 23 23 24 25 26 25 23 21 21 22 23 24 24 23 23 24 25 25 25 25 25 25 26 26 26 26 27 27 27 27
41 41 41 40 39 38 37 37 37 38 38 39 39 38 37 35 32 28 27 28 28 27 27 27 27 26 25 24 22 22 23 23 21 19 18 17 16 15 13 13 14 14 13 13 14 16 17 18 20 22 24 25 25 25 25 25 24 24 25 25 26 26 25 24 25 25 26 26 26 26 26 26 26 25 25 25 25 26 27 26 26 27 28 29 30
41 41 42 41 39 38 38 38 39 39 39 39 40 39 38 36 33 30 29 30 31 29 28 29 30 29 27 25 24 23 23 23 21 18 17 17 16 15 14 14 15 17 16 15 15 16 18 20 22 24 26 28 28 27 26 26 26 25 25 25 27 29 28 27 27 27 27 28 28 28 29 28 28 27 26 27 28 29 28 27 28 30 31 32 33
41 40 39 39 38 38 38 39 39 39 39 39 40 39 38 37 35 32 31 31 32 30 28 30 32 31 29 27 24 23 24 23 20 18 17 17 17 17 17 16 18 19 19 17 16 17 20 22 23 25 27 29 28 27 27 27 27 27 27 28 29 29 29 29 28 27 28 30 31 32 31 29 29 30 30 31 32 31 31 31 31 33 33 33 33
39 37 37 37 37 38 38 38 38 38 39 39 39 39 38 37 36 35 34 34 32 31 30 31 31 30 29 26 23 22 23 23 21 19 18 19 19 19 18 19 20 20 20 19 17 18 21 22 23 24 26 28 27 25 25 26 26 27 28 29 29 29 29 29 29 28 29 31 34 34 32 30 31 33 33 33 33 33 32 32 30 28 26 25 25
37 35 34 34 35 36 37 36 36 36 36 37 37 38 37 37 36 36 37 35 33 31 31 31 30 29 27 25 22 22 25 25 22 20 20 20 20 19 20 21 21 20 20 20 19 19 21 23 24 23 25 28 28 25 25 26 26 27 28 28 28 29 28 29 31 32 30 31 35 37 34 30 30 32 31 29 28 27 25 24 21 20 19 19 19
37 35 34 33 34 34 34 34 33 33 33 33 33 34 34 34 35 37 38 36 33 32 32 32 32 30 27 25 24 24 25 25 22 21 21 21 21 21 21 21 20 20 20 19 19 19 21 24 25 23 23 26 27 26 26 27 27 28 28 28 28 29 29 30 33 35 33 32 33 34 33 29 27 27 26 24 23 22 20 19 18 18 19 20 20
37 35 33 33 33 32 32 32 32 32 31 30 29 29 30 30 32 36 38 36 34 33 32 33 33 30 27 26 26 26 26 24 21 20 20 20 21 20 19 18 17 18 19 19 20 21 23 25 26 25 23 24 25 25 27 28 27 27 28 29 28 29 30 32 36 38 35 30 28 30 31 28 25 27 27 24 22 22 21 21 21 22 24 25 26
36 35 32 31 31 31 31 32 32 33 33 31 28 25 25 26 30 35 37 36 35 33 33 33 32 30 27 27 27 28 26 23 20 19 19 19 19 17 16 16 16 17 18 19 21 23 23 24 25 25 23 23 23 25 26 26 26 27 28 28 27 29 33 35 37 35 29 22 22 28 34 31 27 29 31 27 25 24 23 23 25 26 28 29 29
36 35 33 31 31 31 32 33 34 35 33 29 25 22 21 23 29 33 36 36 36 35 33 33 32 29 26 26 27 26 23 20 19 18 17 17 17 17 17 18 19 20 20 20 21 22 22 22 22 23 22 22 23 24 24 23 25 26 26 26 28 31 33 33 30 27 22 19 21 27 34 33 31 32 33 30 26 24 22 23 25 25 27 31 33
37 36 35 33 33 33 33 34 33 32 29 25 22 20 20 22 26 30 34 36 36 35 33 33 30 26 23 25 25 24 21 19 18 16 15 16 17 17 18 19 21 22 21 21 21 21 20 20 20 21 22 22 22 23 24 24 24 24 25 27 31 31 29 26 25 24 23 22 23 26 32 34 32 32 31 27 24 23 23 25 27 29 33 37 38
38 37 36 35 34 33 31 30 29 27 25 22 20 20 21 22 24 27 32 36 36 33 31 30 27 23 23 24 24 24 22 20 18 16 16 18 19 20 21 22 23 23 21 19 19 18 18 18 20 22 22 22 22 24 25 25 24 25 27 30 29 25 23 25 27 27 26 24 24 25 29 32 30 29 30 30 28 29 30 33 36 38 39 36 32
35 34 33 32 31 28 25 23 22 20 19 18 17 17 19 21 24 27 32 36 35 32 29 28 26 24 24 25 25 24 23 22 19 16 18 21 22 24 24 24 25 24 20 17 17 17 18 20 22 23 23 23 23 23 24 25 26 25 25 24 21 20 23 26 28 29 28 25 22 22 24 27 28 29 32 36 38 39 39 40 39 35 30 26 23
31 31 31 30 27 25 22 19 18 16 15 14 13 14 16 20 22 25 30 34 34 30 27 27 25 24 25 26 25 24 24 22 18 17 20 23 24 24 24 26 26 22 17 16 16 18 19 21 21 22 23 24 25 26 27 27 24 19 17 17 17 18 21 22 22 24 26 24 20 20 24 28 31 33 35 38 41 43 39 33 29 25 23 23 24
Wind_Direction
177 168 172 164 183 216 237 282 329 343 284 315 345 5 327 297 306 300 320 340 28 72 89 80 71 65 39 12 9 24 355 314 303 319 340 9 27 34 22 24 27 32 38 215 199 195 178 182 197 202 200 189 182 179 180 189 197 203 206 204 205 205 202 203 205 206 208 212 214 216 217 220 219 217 214 206 202 205 208 206 208 216 220 221 229
192 183 198 182 187 203 223 251 281 280 262 275 297 286 276 282 291 304 319 330 37 102 99 80 78 91 64 13 10 2 357 357 226 290 302 318 346 29 26 36 42 39 41 78 188 197 183 169 181 198 205 200 192 188 189 191 193 200 206 208 210 214 211 207 208 209 210 214 216 220 222 225 225 221 220 219 214 210 215 221 221 225 229 231 237
221 206 203 199 198 208 225 227 216 240 262 274 274 274 276 286 299 312 326 345 96 118 104 81 74 110 234 319 27 343 9 70 146 285 305 291 261 44 36 40 45 43 46 53 107 186 190 175 172 187 200 202 202 203 206 204 197 197 201 206 210 217 219 216 215 213 211 213 214 220 223 224 226 224 221 221 221 218 219 226 229 231 236 238 240
230 224 221 224 225 230 221 218 223 236 266 274 265 274 281 291 301 313 329 20 118 120 89 43 291 233 262 261 177 200 81 77 72 341 355 73 198 68 49 49 53 53 57 63 78 138 181 184 181 183 189 199 207 212 217 215 210 204 201 204 208 214 220 221 222 219 215 215 214 217 222 224 226 228 227 224 223 225 226 229 233 234 237 242 244
236 231 236 244 242 240 234 234 248 257 270 272 268 276 282 292 297 305 328 52 144 132 87 343 253 276 296 247 209 180 115 78 58 43 62 96 137 91 61 53 42 35 52 73 89 102 137 171 190 193 189 193 204 214 220 219 217 215 210 208 211 215 218 221 226 224 221 222 222 219 219 223 227 231 233 232 230 230 231 234 236 239 241 243 246
238 234 236 247 246 243 246 251 258 260 268 276 276 276 279 289 291 294 309 259 190 130 99 166 254 311 11 97 176 151 123 73 57 64 68 89 112 74 25 355 335 327 351 50 98 103 112 146 180 198 197 194 197 205 215 220 220 222 221 218 220 223 221 224 228 229 227 227 230 231 227 224 225 230 235 237 236 235 235 236 238 241 244 245 248
240 237 235 243 247 246 249 254 258 264 273 278 276 276 281 286 288 290 290 263 200 124 107 151 255 316 53 90 105 139 129 49 63 79 80 80 66 45 22 12 355 328 316 316 125 126 122 141 177 193 198 201 201 201 206 214 216 220 225 225 229 233 232 232 231 232 232 230 230 234 236 234 230 229 231 235 237 237 238 239 240 242 245 246 248
241 237 237 241 246 251 253 257 263 269 275 275 273 278 285 288 288 288 282 242 177 155 137 149 198 284 116 108 102 154 179 262 105 104 117 156 181 34 29 28 28 23 355 331 346 43 118 149 190 193 199 205 206 206 203 204 210 216 221 224 232 239 240 241 239 237 238 237 234 232 236 240 239 236 235 237 238 239 240 242 243 245 246 247 248
239 234 238 243 249 256 256 260 265 270 274 274 275 278 285 290 286 283 278 229 187 183 188 206 229 243 179 173 213 185 226 255 175 133 118 126 133 104 57 52 50 51 48 48 50 32 50 94 177 191 203 210 212 214 209 206 212 218 219 221 228 234 239 242 244 243 242 243 242 239 239 240 242 241 240 241 242 243 245 246 246 247 248 247 248
230 234 240 244 250 255 256 260 263 268 275 276 275 275 278 284 278 271 261 220 202 226 267 255 238 215 150 170 219 226 253 265 207 169 131 121 137 142 105 81 62 55 48 49 57 59 77 92 110 158 198 209 214 219 218 214 219 226 226 225 229 232 234 238 244 247 245 243 245 245 245 245 245 245 245 244 243 244 246 247 248 249 250 249 248
228 235 241 246 251 256 260 260 262 272 279 275 268 265 267 273 267 240 217 212 236 270 285 248 193 169 158 199 239 256 266 224 178 167 140 119 139 146 120 96 74 53 39 32 41 52 75 90 95 116 152 178 205 218 222 224 226 234 237 233 233 234 235 235 240 246 247 245 245 247 248 247 247 248 249 249 248 248 248 249 250 250 250 250 250
236 240 243 249 252 255 259 257 262 275 276 269 260 256 259 251 220 202 209 249 266 210 116 121 189 189 181 210 220 160 119 148 140 142 134 121 140 149 132 112 92 58 41 34 32 37 50 72 92 110 132 145 164 187 210 230 232 235 238 235 234 234 236 236 237 240 245 246 247 249 250 249 250 250 251 253 253 253 253 253 253 252 250 250 250
239 241 244 250 252 253 255 255 260 266 262 259 254 239 216 199 193 206 250 282 201 134 124 146 170 159 152 175 179 108 116 142 139 139 135 133 150 158 148 138 121 95 68 32 15 17 32 59 91 110 126 142 152 143 139 187 221 221 226 230 233 234 236 239 240 241 244 247 248 249 250 251 251 251 253 254 255 255 256 256 255 254 252 251 251
240 240 244 248 249 250 251 252 249 244 241 237 221 190 184 192 206 238 172 120 124 125 127 190 167 147 138 148 162 137 129 140 145 146 136 148 167 175 171 162 142 129 116 4 342 335 4 49 74 103 115 128 148 144 133 145 164 173 211 230 236 239 240 242 245 246 246 248 250 250 250 252 253 253 254 255 256 256 257 257 257 257 256 254 252
241 244 248 244 239 239 238 239 230 219 215 207 192 185 199 220 233 218 147 129 127 128 100 211 208 195 161 132 155 175 179 187 171 154 150 180 183 195 203 186 152 136 114 306 285 289 320 50 40 74 118 117 128 135 141 156 170 242 264 248 249 251 250 249 250 250 249 250 251 252 251 252 255 256 256 256 255 255 257 258 258 258 258 257 255
242 246 246 234 228 229 225 221 215 209 203 204 207 199 205 224 198 158 150 152 159 156 132 118 180 198 200 164 146 166 178 212 196 152 137 173 190 206 187 143 101 109 348 274 257 272 262 42 29 52 82 63 95 159 175 163 172 216 249 267 280 274 269 263 259 258 256 257 257 257 256 254 256 256 256 255 254 255 256 257 257 257 258 258 257
241 241 230 222 223 221 216 215 220 222 213 213 214 197 180 173 149 145 167 177 171 162 165 162 117 180 220 201 146 144 137 174 182 156 135 150 191 209 185 82 35 7 351 26 90 64 52 18 21 29 15 6 3 330 299 271 221 222 241 270 289 286 284 279 271 270 265 264 264 263 260 257 257 257 257 256 255 255 256 256 257 257 257 257 257
240 231 217 218 223 218 216 222 228 228 213 210 204 185 189 177 156 163 184 184 170 163 164 166 155 89 210 203 168 149 144 159 173 171 160 140 168 208 241 273 15 359 24 49 66 59 24 355 3 5 354 346 346 345 328 334 12 37 13 291 298 292 287 286 281 281 276 272 271 268 267 264 261 260 259 259 258 256 256 257 258 258 258 257 256
231 220 215 218 219 219 226 230 229 226 215 217 209 182 175 190 190 194 196 183 172 169 163 165 177 151 146 184 180 153 143 160 163 168 189 173 160 121 174 206 12 51 37 42 77 62 4 346 352 354 345 335 341 352 347 358 33 40 23 5 338 311 293 287 284 284 284 284 283 281 280 279 276 273 270 267 264 262 259 259 259 260 260 259 258
222 216 218 217 214 218 229 233 226 219 212 210 199 182 177 198 209 211 203 182 176 182 178 175 185 177 156 152 156 147 138 160 152 133 212 201 171 114 113 229 341 110 25 57 133 7 336 341 354 357 347 333 342 350 349 358 21 25 4 357 346 330 316 304 294 287 285 285 286 287 287 288 290 289 288 284 280 276 271 267 264 263 262 262 262
221 216 217 215 213 214 222 232 227 215 207 193 193 193 191 203 216 224 219 196 188 190 184 179 181 175 168 163 167 164 154 159 144 108 210 212 199 149 100 102 135 145 315 155 168 289 325 346 358 352 349 349 331 334 344 356 3 2 354 352 343 329 320 312 303 297 292 288 287 289 290 291 293 294 295 294 293 291 287 283 278 273 269 266 264
216 209 211 214 214 212 217 230 228 219 211 189 191 199 200 209 227 241 238 223 202 192 188 186 185 183 180 179 193 190 167 163 162 147 172 206 221 201 111 110 116 118 170 178 265 318 331 343 344 337 336 334 316 318 330 342 347 347 344 344 339 332 327 321 311 304 297 292 291 292 294 295 295 296 296 295 294 293 291 290 288 284 280 275 271
216 210 213 220 221 216 217 225 225 222 214 188 186 199 208 216 228 235 233 225 202 187 188 190 190 191 178 157 181 197 180 170 184 193 188 192 213 221 197 185 150 122 147 231 322 319 319 325 327 318 313 312 306 310 319 325 331 333 332 333 336 335 332 326 316 308 301 294 291 291 294 297 298 297 295 293 292 290 289 288 287 286 284 282 279
218 214 216 224 230 226 220 220 220 218 212 199 194 204 215 221 225 227 222 217 203 183 184 190 192 187 162 134 148 177 175 167 201 215 208 207 224 243 251 248 235 186 185 226 282 293 302 314 317 305 297 297 292 296 307 313 316 319 319 321 324 330 333 328 319 313 307 300 293 291 295 296 296 295 292 292 291 289 289 287 287 286 285 283 281
218 218 219 227 235 234 227 221 216 214 208 199 197 205 214 218 223 229 221 219 219 194 185 192 193 187 175 153 149 166 182 190 219 218 214 226 238 249 252 247 243 236 237 242 254 280 292 302 307 297 286 284 281 285 295 303 304 304 307 312 315 321 329 327 319 316 315 308 297 291 295 295 294 293 290 290 289 289 289 288 287 287 286 285 283
220 222 224 230 236 238 234 223 213 211 208 200 199 205 213 216 220 226 224 223 221 198 187 190 188 186 186 174 167 187 196 193 208 213 213 219 225 235 243 247 252 255 256 252 252 267 278 283 297 301 285 273 273 281 288 293 293 293 300 309 315 318 321 320 316 312 311 308 301 294 292 293 295 296 294 293 290 288 288 287 287 287 286 286 284
223 226 229 234 237 235 234 228 217 212 212 209 202 202 208 213 215 217 218 220 215 199 187 185 181 181 184 184 188 202 198 190 197 207 213 212 213 228 241 252 262 267 268 262 257 263 267 261 268 299 291 273 272 278 281 284 288 294 304 311 315 315 315 315 313 308 303 300 297 295 294 293 295 296 296 295 293 290 287 285 284 284 285 285 285
224 227 230 234 237 235 231 226 222 217 216 215 205 200 203 210 214 214 214 218 214 199 191 188 184 181 186 195 202 203 205 210 211 212 222 229 234 237 242 253 264 270 272 267 261 259 258 258 269 286 288 284 280 277 282 292 299 304 307 309 311 311 311 311 310 308 302 294 291 293 293 293 293 294 295 294 293 291 288 285 283 281 282 282 283
225 226 229 232 236 237 232 224 224 222 217 215 210 204 204 209 214 214 215 221 220 207 198 196 191 187 188 198 203 204 213 221 221 222 227 235 243 245 249 258 262 263 264 265 267 264 255 260 274 277 278 290 291 288 291 297 301 303 303 304 305 305 306 307 307 305 300 294 291 290 290 290 290 290 290 290 290 289 287 285 282 280 279 279 279
226 226 227 230 234 237 233 226 227 225 219 215 212 208 206 207 211 216 219 224 223 214 207 203 199 193 192 196 198 201 210 217 218 222 226 230 237 243 249 254 255 253 253 258 266 268 266 265 260 255 265 280 285 286 289 291 294 296 296 297 298 300 301 301 301 300 298 296 293 291 291 289 289 289 287 286 287 287 287 286 284 282 279 277 276
227 226 224 227 233 235 231 227 227 227 223 220 216 214 211 206 209 215 219 222 222 216 209 207 204 199 199 202 201 200 207 212 213 219 227 231 233 237 243 248 252 251 249 256 265 270 279 280 265 253 262 272 275 278 282 283 284 286 288 290 293 297 298 297 296 294 292 294 294 291 290 288 287 287 286 286 286 286 285 284 284 283 282 280 278
228 228 226 228 232 233 232 229 227 227 227 226 222 221 219 214 212 213 213 215 219 219 213 208 208 206 205 207 208 208 213 216 217 221 227 230 234 240 249 252 246 241 240 252 268 276 284 286 281 273 270 275 279 280 283 282 280 278 280 284 287 291 294 297 298 294 288 286 285 286 287 289 289 288 287 287 287 286 286 285 285 284 282 281 280
230 230 229 230 232 233 233 232 231 231 234 235 232 228 226 224 219 214 211 211 214 218 218 213 211 211 211 210 210 213 218 222 223 225 228 231 235 241 246 243 234 232 241 253 268 280 288 291 290 287 285 289 295 298 299 297 293 286 282 281 281 281 285 291 294 294 290 281 278 280 285 291 294 294 293 292 290 288 287 288 288 286 283 282 281
231 232 232 233 232 232 234 235 235 236 238 241 241 237 234 231 225 217 211 210 213 215 217 218 214 211 211 211 211 214 219 224 225 226 229 231 233 235 235 234 232 233 241 249 261 278 289 295 294 292 295 299 305 312 311 306 304 300 294 289 284 280 283 288 292 295 295 288 283 283 285 288 291 294 295 294 292 290 289 288 288 288 287 284 282
233 234 235 236 235 234 235 237 238 239 240 242 243 242 240 237 232 224 215 213 215 216 217 218 216 212 211 210 212 214 217 221 222 223 227 228 230 233 231 230 233 234 238 248 259 272 282 288 291 294 301 304 306 310 312 308 304 302 301 298 294 290 291 293 295 297 298 293 287 286 286 286 288 291 292 291 290 288 287 287 287 288 289 288 286
233 234 236 237 238 238 238 239 240 240 241 242 243 244 243 241 238 232 223 218 219 220 220 218 216 215 216 214 215 216 217 221 223 222 223 225 229 234 235 232 233 235 241 252 261 267 273 279 285 292 301 304 304 304 306 306 304 304 306 306 303 299 296 295 295 297 299 296 290 286 286 286 289 292 292 291 289 288 288 288 287 288 289 289 289
233 234 235 236 239 240 242 243 243 242 242 243 244 245 245 243 241 237 230 224 224 224 223 221 218 218 220 218 217 219 222 225 225 223 222 223 227 234 240 243 242 243 247 256 265 271 275 281 287 293 298 301 301 299 301 306 307 307 310 311 309 306 303 300 298 299 301 299 293 288 286 287 289 290 290 289 288 288 289 290 290 290 289 289 289
234 234 234 236 239 242 245 246 246 246 245 245 245 246 246 244 241 240 234 228 228 229 227 224 222 223 223 221 218 220 224 224 220 219 223 226 230 235 242 249 252 253 257 266 275 280 282 285 291 295 297 298 297 297 301 307 307 306 309 311 312 311 308 306 304 302 301 299 296 293 291 291 291 290 289 288 286 286 286 287 288 289 289 289 288
235 235 236 237 240 244 246 247 247 247 246 245 245 245 245 244 243 242 239 233 232 232 229 227 226 227 227 225 222 224 225 224 221 221 224 229 232 236 243 252 256 257 261 271 280 284 285 288 292 295 297 298 298 298 302 305 303 303 307 309 310 309 306 304 303 300 298 298 299 300 299 299 296 293 290 288 287 288 288 288 288 286 286 287 287
235 236 237 239 241 244 246 246 248 247 246 245 244 243 242 242 242 244 244 241 235 231 229 227 226 228 229 228 228 230 228 225 225 228 229 231 236 240 243 248 253 256 260 267 273 278 282 286 291 296 299 300 299 297 299 301 301 303 306 306 306 305 302 299 297 295 295 297 299 301 301 299 297 295 292 290 290 292 292 290 287 286 287 288 287
236 237 237 239 241 243 245 245 246 246 246 245 245 244 243 241 244 247 247 243 236 234 233 228 225 226 229 230 231 233 230 226 226 230 231 232 237 241 240 241 245 251 258 264 269 277 282 286 292 297 299 299 299 297 298 300 301 303 305 305 303 301 298 295 294 295 296 296 298 300 300 298 297 296 294 293 293 293 290 287 287 289 290 289 287
236 236 235 237 240 243 244 245 246 246 247 249 249 248 246 245 249 251 248 243 238 236 235 230 225 226 228 229 229 232 234 232 229 230 233 234 238 242 244 245 246 252 262 269 274 280 283 287 292 298 300 300 301 300 299 300 302 302 303 303 301 299 298 296 297 301 301 300 302 303 301 299 299 298 296 295 295 294 291 290 290 290 290 290 292
235 235 235 236 240 242 243 245 247 248 250 251 251 251 249 249 251 250 248 245 240 236 234 229 225 225 226 228 228 231 235 234 230 234 241 243 245 249 251 252 254 259 267 271 274 278 282 286 291 295 298 300 303 302 301 301 302 302 301 301 299 299 299 300 304 306 305 305 306 304 302 302 302 300 299 301 301 299 297 294 292 290 293 298 301
232 234 235 236 238 240 243 246 249 251 253 254 253 253 252 252 252 249 245 242 238 235 232 227 224 224 226 229 229 231 233 232 232 241 248 248 251 256 257 259 261 266 269 269 271 277 283 288 290 289 291 296 299 301 301 302 302 301 299 298 297 298 301 304 307 306 305 306 306 303 302 305 305 304 307 312 310 306 302 298 295 296 299 301 300
229 232 234 235 236 237 240 244 250 253 255 256 255 253 252 252 250 247 242 238 235 234 231 226 222 222 226 230 231 231 232 232 239 250 253 251 253 256 258 260 263 268 271 272 273 278 284 287 284 280 284 292 295 295 297 298 298 296 295 296 297 299 302 304 304 303 305 307 307 304 304 306 310 312 316 321 319 312 306 302 301 300 299 299 298
226 229 231 232 233 235 239 244 248 252 254 256 255 253 252 251 249 245 241 235 233 232 229 225 224 227 234 236 234 232 231 237 252 261 257 251 251 253 256 263 269 274 278 277 275 278 281 282 278 276 281 289 292 294 296 295 292 291 293 295 297 298 300 300 300 301 304 307 310 308 306 309 317 318 318 322 322 316 309 304 301 299 297 295 294
225 227 229 229 231 235 241 245 248 250 252 252 251 248 248 248 246 243 240 235 231 229 228 226 229 235 239 236 232 231 233 247 264 264 254 250 253 259 266 273 280 282 281 278 276 279 279 278 277 277 282 287 292 296 297 292 289 289 290 291 294 296 298 299 299 300 301 305 312 311 307 312 319 317 314 317 316 308 300 296 293 291 289 290 291
224 227 228 230 232 237 241 244 246 248 249 248 246 245 245 244 241 240 239 235 229 226 226 227 230 235 234 231 231 230 236 256 266 258 251 255 260 266 275 283 286 285 282 280 278 278 278 277 279 281 283 286 288 289 290 288 287 287 288 290 293 296 300 302 302 304 307 313 317 314 310 312 314 311 307 306 302 293 287 284 284 286 288 291 293
225 227 230 232 236 240 240 240 240 244 247 249 249 250 249 244 240 240 237 231 224 222 223 225 228 232 232 233 232 231 242 264 269 253 250 258 263 271 280 285 288 287 285 279 272 269 268 271 276 280 280 281 282 283 282 282 284 288 292 294 296 297 300 303 305 308 312 315 316 313 308 306 305 302 298 295 292 289 287 287 289 291 293 295 295
228 231 233 235 237 239 237 236 238 242 245 246 246 247 247 246 243 241 235 226 219 218 221 225 229 234 235 235 233 235 252 270 271 256 255 263 268 274 281 286 289 287 282 274 267 266 270 274 278 280 279 279 278 277 277 281 286 292 295 296 298 300 301 302 304 306 308 308 310 308 301 296 296 295 294 295 294 292 292 294 296 297 298 301 303
228 232 234 234 234 233 233 234 235 235 234 235 238 239 243 246 246 241 234 224 215 216 223 228 232 235 237 237 238 247 260 269 266 260 262 267 271 276 281 286 287 282 277 276 276 278 281 282 282 281 279 277 277 279 283 286 288 291 292 294 297 299 300 301 303 304 303 301 300 298 295 294 295 296 298 301 300 298 299 304 307 307 308 311 314